Notices

What's New in latest Release from April 7th, 2021:

- Updated Glossary, including Speed of Maximum Gust, and Total Hourly Precipitation

- Updated national and regional climate services offices contacts and prices information

- Addition of station inventory lists for 1981-2010, 1971-2000, and 1961-1990 Normals.

If you haven't already, please take our survey and provide feedback about our website: https://eccc.sondage-survey.ca/f/LanguageSelection.aspx?s=442ca660-fcf1-47c0-95a9-59707d6fd709

Hourly Data Report for November 01, 2019

EUREKA CLIMATE
NUNAVUT
Current Station Operator: ECCC - MSC

79°59'21.000" N
85°56'02.000" W
10.00 m
2401199
71613
NEK

Download Data

Hourly Data (November 2019)
Hourly Data Report for November 1, 2019
TIME
LST
Temp Definition
°C
Dew Point Definition
°C
Rel Hum Definition
%
Precip. Amount Definition
mm

Wind Dir Definition
10's deg

Wind Spd Definition
km/h
Visibility Definition
km
Stn Press Definition
kPa
Hmdx Definition


Wind Chill Definition


Weather Definition


00:00 -18.6 -20.1 88 0.0 36 11   101.03   -26 LegendNANA
01:00 -18.6 -20.2 88 0.0 33 9   101.04   -25 LegendNANA
02:00 -18.7 -20.4 87 0.0 1 24   101.04   -30 LegendNANA
03:00 -19.0 -20.6 87 0.0 28 16   101.07   -28 LegendNANA
04:00 -18.8 -20.5 87 0.0 28 12   101.08   -27 LegendNANA
05:00 -19.4 -21.0 87 0.0 30 12   101.07   -27 LegendNANA
06:00 -19.0 -20.8 86 0.0 30 15   101.09   -28 LegendNANA
07:00 -18.0 -19.6 87 0.0 30 10   101.09   -25 LegendNANA
08:00 -19.1 -21.0 85 0.0 30 15   101.11   -28 LegendNANA
09:00 -17.6 -19.4 86 0.0 35 21   101.11   -28 LegendNANA
10:00 -16.5 -18.0 88 0.2 33 15   101.12   -25 LegendNANA
11:00 -17.1 -18.8 87 0.0 29 13   101.13   -25 LegendNANA
12:00 -16.8 -18.5 86 0.0 30 13   101.15   -25 LegendNANA
13:00 -16.7 -18.6 85 0.0 30 12   101.15   -24 LegendNANA
14:00 -16.4 -18.2 86 0.0 30 14   101.16   -24 LegendNANA
15:00 -16.8 -18.4 87 0.2 30 11   101.19   -24 LegendNANA
16:00 -16.9 -18.7 86 0.0 29 15   101.20   -25 LegendNANA
17:00 -16.4 -18.2 86 0.0 29 11   101.20   -23 LegendNANA
18:00 -15.8 -17.9 84 0.0 32 14   101.21   -24 LegendNANA
19:00 -16.0 -18.0 84 0.0 32 12   101.23   -23 LegendNANA
20:00 -14.5 -16.8 83 0.0 33 14   101.21   -22 LegendNANA
21:00 -15.6 -18.5 79 0.0 34 18   101.24   -24 LegendNANA
22:00 -14.2 -17.8 74 0.0 35 16   101.19   -22 LegendNANA
23:00 -15.5 -19.2 73 0.0 1 30   101.17   -27 LegendNANA

Notes on Data Quality.

Legend

  • E = Estimated
  • M = Missing
  • NA = Not Available*
  • [empty] = Indicates an unobserved value
Date modified: